Terminal Aerodrome Forecast
Issued by NWS

Home | Current Version | Previous Version | Text Only | Print | Product List | Glossary On
Versions: 1 2 3 4 5 6 7 8 9 10 11 12 13 14 15 16 17
000
FTUS43 KLSX 262100 AAB
TAFUIN
TAF AMD
KUIN 262125Z 2621/2718 13006KT 2SM -FZDZSN BR OVC007
     FM262200 VRB04KT 4SM -FZDZSN BR OVC007
     FM270200 34010KT P6SM VCSH OVC007
     FM270600 32012KT P6SM OVC007
     FM271400 32012KT P6SM SCT015 BKN250=

USA.gov is the U.S. government's official web portal to all federal, state and local government web resources and services.